TimeMST,TemperatureF,Dew PointF,Humidity,Sea Level PressureIn,VisibilityMPH,Wind Direction,Wind SpeedMPH,Gust SpeedMPH,PrecipitationIn,Events,Conditions,WindDirDegrees,DateUTC
12:53 AM,15.1,6.1,68,30.35,10.0,South,8.1,-,N/A,,Clear,170,2013-02-25 07:53:00
1:53 AM,15.1,7.0,70,30.35,10.0,South,10.4,-,N/A,,Clear,170,2013-02-25 08:53:00
2:53 AM,15.1,6.1,68,30.33,10.0,South,10.4,-,N/A,,Clear,170,2013-02-25 09:53:00
3:53 AM,14.0,6.1,71,30.32,10.0,South,9.2,-,N/A,,Clear,170,2013-02-25 10:53:00
4:53 AM,12.9,6.1,74,30.33,10.0,South,9.2,-,N/A,,Clear,180,2013-02-25 11:53:00
5:53 AM,12.0,5.0,73,30.34,10.0,South,8.1,-,N/A,,Clear,170,2013-02-25 12:53:00
6:53 AM,14.0,5.0,67,30.32,10.0,South,11.5,-,N/A,,Clear,170,2013-02-25 13:53:00
7:53 AM,14.0,6.1,71,30.34,10.0,South,9.2,-,N/A,,Clear,170,2013-02-25 14:53:00
8:53 AM,17.1,7.0,65,30.32,10.0,South,6.9,-,N/A,,Clear,170,2013-02-25 15:53:00
9:53 AM,21.0,10.0,63,30.30,10.0,South,4.6,-,N/A,,Clear,180,2013-02-25 16:53:00
10:53 AM,27.0,10.9,51,30.26,10.0,SE,4.6,-,N/A,,Clear,140,2013-02-25 17:53:00
11:53 AM,30.0,14.0,51,30.23,10.0,Calm,Calm,-,N/A,,Clear,0,2013-02-25 18:53:00
12:53 PM,30.9,14.0,50,30.18,10.0,South,8.1,-,N/A,,Clear,180,2013-02-25 19:53:00
1:53 PM,30.9,12.9,47,30.14,10.0,SSW,9.2,-,N/A,,Clear,200,2013-02-25 20:53:00
2:53 PM,30.0,17.1,59,30.13,10.0,NNW,5.8,-,N/A,,Clear,330,2013-02-25 21:53:00
3:53 PM,30.0,18.0,61,30.11,10.0,NNW,5.8,-,N/A,,Clear,340,2013-02-25 22:53:00
4:53 PM,30.0,17.1,59,30.10,10.0,NW,5.8,-,N/A,,Mostly Cloudy,320,2013-02-25 23:53:00
5:53 PM,26.1,16.0,66,30.15,10.0,NNW,5.8,-,N/A,,Overcast,330,2013-02-26 00:53:00
6:53 PM,28.0,16.0,61,30.15,10.0,ESE,6.9,-,N/A,,Overcast,110,2013-02-26 01:53:00
7:53 PM,30.0,18.0,61,30.13,10.0,SSE,9.2,-,N/A,,Overcast,160,2013-02-26 02:53:00
8:53 PM,28.0,18.0,66,30.11,10.0,Calm,Calm,-,N/A,,Scattered Clouds,0,2013-02-26 03:53:00
9:53 PM,28.0,19.0,69,30.11,10.0,South,3.5,-,N/A,,Partly Cloudy,180,2013-02-26 04:53:00
10:53 PM,25.0,18.0,75,30.12,10.0,SSW,4.6,-,N/A,,Overcast,210,2013-02-26 05:53:00
11:53 PM,27.0,19.0,72,30.09,10.0,South,5.8,-,N/A,,Overcast,170,2013-02-26 06:53:00